Cosmos 921 Rocket - Orbit

View from above orbital plane
View from above orbital plane
View from above satellite
View from above satellite

Ground track
Ground track

The orbit data is extracted from the following two-line orbital elements,

1 10096U 77055B   13143.10356626  .00000689  00000-0  77311-4 0  1102
2 10096 075.8349 117.2169 0043335 028.0469 104.0801 14.87296593941213
Epoch (UTC): 23 May 2013 02:29:08
Eccentricity: 0.0043335
inclination: 75.8349°
perigee height: 576 km
apogee height: 636 km
right ascension of ascending node: 117.2169°
argument of perigee: 28.0469°
revolutions per day: 14.87296593
mean anomaly at epoch: 104.0801°
orbit number at epoch: 94121

The dashed part of the orbit path shows where the satellite is in the earth's shadow,  

Developed and maintained by Chris Peat, Heavens-Above GmbH. Please read the updated FAQ before sending e-mail. Imprint. DLR